Regional Weather Roundup
Issued by NWS Sioux Falls, SD

Home | Current Version | Previous Version | Text Only | Print | Product List | Glossary Off
Versions: 1 2 3 4 5 6 7 8 9 10 11 12 13 14 15 16 17 18 19 20 21 22 23 24 25 26 27 28 29 30 31 32 33 34 35 36 37 38 39 40 41 42 43 44 45 46 47 48 49 50

000
ASUS43 KFSD 040102
RWRFSD

WEATHER ROUNDUP FOR SE SOUTH DAKOTA/SW MINNESOTA/NW IOWA
NATIONAL WEATHER SERVICE SIOUX FALLS SD
800 PM CDT SUN MAY 03 2015

NOTE: "FAIR" INDICATES FEW OR NO CLOUDS BELOW 12,000 FEET WITH NO
SIGNIFICANT WEATHER AND OR OBSTRUCTIONS TO VISIBILITY.


SDZ038>040-050-052>070-040200-
SOUTHEAST SOUTH DAKOTA

CITY           SKY/WX    TMP DP  RH WIND       PRES   REMARKS
BROOKINGS      PTCLDY    66  36  32 N17G23    29.91R
CHAMBERLAIN    NOT AVBL
HURON          CLEAR     66  31  27 NE12      29.93R
MADISON        FAIR      66  36  32 N21G31    29.89S
MITCHELL       PTCLDY    69  37  30 N23       29.91R
SIOUX FALLS    PTCLDY    66  38  35 N10       29.85S
WINNER         FAIR      69  32  25 N20       29.96R
YANKTON        PTCLDY    66  41  39 N15G25    29.85R
$$

MNZ071-072-080-081-089-090-097-098-040200-
SOUTHWEST MINNESOTA

CITY           SKY/WX    TMP DP  RH WIND       PRES   REMARKS
FAIRMONT       CLOUDY    72  39  30 N20G26    29.80R
JACKSON        MOCLDY    70  32  24 N18       29.82S
LUVERNE        PTCLDY    68  36  30 N13G21    29.86R
MARSHALL       CLEAR     68  36  30 N23G30    29.87R
MONTEVIDEO     CLEAR     66  30  26 N22G31    29.88R
REDWOOD FALLS  PTCLDY    67  39  35 NE8       29.85R
TRACY          CLEAR     68  36  30 N18       29.87R
WORTHINGTON    PTCLDY    66  36  32 N20G25    29.85R
$$

IAZ001>003-012>014-020>022-031-032-NEZ013-014-SDZ071-040200-
NORTHWEST IOWA

CITY           SKY/WX    TMP DP  RH WIND       PRES   REMARKS
DENISON        MOCLDY    75  61  60 S8        29.74R
ESTHERVILLE    CLOUDY    69  45  41 N28       29.79F
SIOUX CITY     PTCLDY    77  44  30 NE23G30   29.76R
SPENCER        PTCLDY    69  47  45 N21       29.78S
$$

ABBREVIATIONS USED IN REMARKS
   TC - TEMPERATURE IN CELSIUS
  WCI - WIND CHILL INDEX
   HX - HEAT INDEX
  VSB - VISIBILITY



USA.gov is the U.S. government's official web portal to all federal, state and local government web resources and services.